| time (UTC) | temp F | wind direction | speed MPH | gust MPH | rain 1hr in | rain 24hr in | rain mn in | humidity % | barometer mb |
| 20260831092500 | 71 | 220 | 0.0 | 4.0 | 0.00 | 0.00 | 0.00 | 100 | 1009.4 |
| 20260831091951 | 71 | 243 | 4.0 | 5.0 | 0.00 | 0.00 | 0.00 | 100 | 1009.4 |
| 20260831091450 | 72 | 277 | 0.0 | 6.0 | 0.00 | 0.00 | 0.00 | 100 | 1009.4 |
| 20260831090949 | 72 | 310 | 2.0 | 6.0 | 0.00 | 0.00 | 0.00 | 100 | 1009.4 |
| 20260831090449 | 73 | 323 | 5.0 | 8.0 | 0.00 | 0.00 | 0.00 | 100 | 1009.4 |
| 20260831085948 | 74 | 320 | 4.0 | 10.0 | 0.00 | 0.00 | 0.00 | 100 | 1009.4 |
| 20260831085711 | 74 | 25 | 3.0 | 11.0 | 0.00 | 0.00 | 0.00 | 100 | 1009.4 |
| 20260831085208 | 72 | 71 | 6.0 | 15.0 | 0.00 | 0.00 | 0.00 | 100 | 1009.4 |
| 20260831084446 | 74 | 99 | 8.0 | 21.0 | 0.00 | 0.00 | 0.00 | 100 | 1009.4 |
| 20260831083946 | 76 | 59 | 10.0 | 21.0 | 0.00 | 0.00 | 0.00 | 100 | 1009.4 |
| 20260831083705 | 76 | 25 | 14.0 | 21.0 | 0.00 | 0.00 | 0.00 | 100 | 1009.4 |
| 20260831082944 | 76 | 49 | 13.0 | 26.0 | 0.00 | 0.00 | 0.00 | 100 | 1009.4 |
| 20260831082444 | 76 | 59 | 13.0 | 26.0 | 0.00 | 0.00 | 0.00 | 100 | 1009.4 |
| 20260831081944 | 76 | 67 | 17.0 | 26.0 | 0.00 | 0.00 | 0.00 | 100 | 1009.4 |
| 20260831081444 | 76 | 36 | 17.0 | 23.0 | 0.00 | 0.00 | 0.00 | 100 | 1009.4 |
| 20260831080942 | 73 | 40 | 16.0 | 21.0 | 0.00 | 0.00 | 0.00 | 100 | 1009.4 |
| 20260831080442 | 74 | 18 | 12.0 | 18.0 | 0.00 | 0.00 | 0.00 | 100 | 1009.4 |
| 20260831075941 | 73 | 39 | 11.0 | 18.0 | 0.00 | 0.00 | 0.00 | 100 | 1009.4 |
| 20260831075441 | 75 | 12 | 10.0 | 20.0 | 0.00 | 0.00 | 0.00 | 100 | 1009.4 |
| 20260831074940 | 75 | 8 | 14.0 | 23.0 | 0.00 | 0.00 | 0.00 | 100 | 1009.4 |
| 20260831074439 | 75 | 12 | 15.0 | 23.0 | 0.00 | 0.00 | 0.00 | 100 | 1009.4 |
| 20260831073939 | 75 | 5 | 17.0 | 23.0 | 0.00 | 0.00 | 0.00 | 100 | 1009.4 |
| 20260831073701 | 72 | 8 | 14.0 | 22.0 | 0.00 | 0.00 | 0.00 | 100 | 1009.4 |
| 20260831072938 | 72 | 0 | 14.0 | 22.0 | 0.00 | 0.00 | 0.00 | 100 | 1009.4 |
| 20260831072437 | 75 | 11 | 13.0 | 25.0 | 0.00 | 0.00 | 0.00 | 100 | 1009.4 |
| 20260831071937 | 75 | 42 | 16.0 | 29.0 | 0.00 | 0.00 | 0.00 | 100 | 1009.4 |
| 20260831071436 | 74 | 347 | 18.0 | 29.0 | 0.00 | 0.00 | 0.00 | 100 | 1009.4 |
| 20260831071154 | 74 | 14 | 22.0 | 27.0 | 0.00 | 0.00 | 0.00 | 100 | 1009.4 |
| 20260831065935 | 74 | 35 | 18.0 | 29.0 | 0.00 | 0.00 | 0.00 | 100 | 1009.4 |
| 20260831065434 | 74 | 7 | 21.0 | 29.0 | 0.00 | 0.00 | 0.00 | 100 | 1009.4 |
| 20260831064933 | 73 | 12 | 21.0 | 27.0 | 0.00 | 0.00 | 0.00 | 100 | 1009.4 |
| 20260831064433 | 74 | 14 | 18.0 | 25.0 | 0.00 | 0.00 | 0.00 | 100 | 1009.4 |
| 20260831063932 | 74 | 19 | 16.0 | 22.0 | 0.00 | 0.00 | 0.00 | 100 | 1009.4 |
| 20260831063431 | 75 | 14 | 16.0 | 21.0 | 0.00 | 0.00 | 0.00 | 100 | 1009.4 |
| 20260831063154 | 75 | 1 | 14.0 | 21.0 | 0.00 | 0.00 | 0.00 | 100 | 1009.4 |
| 20260831062431 | 70 | 333 | 17.0 | 21.0 | 0.00 | 0.00 | 0.00 | 100 | 1009.4 |
| 20260831061930 | 67 | 303 | 13.0 | 16.0 | 0.00 | 0.00 | 0.00 | 100 | 1009.4 |
| 20260831061429 | 66 | 350 | 12.0 | 16.0 | 0.00 | 0.00 | 0.00 | 100 | 1009.4 |
| 20260831060929 | 68 | 350 | 11.0 | 16.0 | 0.00 | 0.00 | 0.00 | 100 | 1009.4 |
| 20260831060428 | 70 | 338 | 10.0 | 18.0 | 0.00 | 0.00 | 0.00 | 100 | 1009.4 |
| 20260831055927 | 72 | 336 | 9.0 | 19.0 | 0.00 | 0.00 | 0.00 | 100 | 1009.4 |
| 20260831055427 | 75 | 327 | 10.0 | 19.0 | 0.00 | 0.00 | 0.00 | 100 | 1009.4 |
| 20260831054926 | 75 | 326 | 14.0 | 19.0 | 0.00 | 0.00 | 0.00 | 100 | 1009.4 |
| 20260831054643 | 71 | 329 | 12.0 | 16.0 | 0.00 | 0.00 | 0.00 | 100 | 1009.4 |
| 20260831054146 | 71 | 338 | 9.0 | 16.0 | 0.00 | 0.00 | 0.00 | 100 | 1009.4 |
| 20260831053425 | 69 | 341 | 12.0 | 19.0 | 0.00 | 0.00 | 0.00 | 100 | 1009.4 |
| 20260831052923 | 70 | 348 | 10.0 | 27.0 | 0.00 | 0.00 | 0.00 | 100 | 1009.4 |
| 20260831052424 | 74 | 327 | 10.0 | 27.0 | 0.00 | 0.00 | 0.00 | 100 | 1009.4 |
| 20260831051922 | 71 | 312 | 13.0 | 39.0 | 0.00 | 0.00 | 0.00 | 100 | 1009.4 |
| 20260831051422 | 71 | 303 | 17.0 | 45.0 | 0.00 | 0.00 | 0.00 | 100 | 1009.4 |
| 20260831051139 | 73 | 288 | 28.0 | 45.0 | 0.00 | 0.00 | 0.00 | 100 | 1009.4 |
| 20260831050421 | 76 | 262 | 26.0 | 43.0 | 0.00 | 0.00 | 0.00 | 100 | 1009.4 |
| 20260831045921 | 83 | 260 | 19.0 | 37.0 | 0.00 | 0.00 | 0.00 | 100 | 1009.4 |
| 20260831045639 | 88 | 215 | 23.0 | 32.0 | 0.00 | 0.00 | 0.00 | 100 | 1009.4 |
| 20260831044919 | 91 | 229 | 17.0 | 25.0 | 0.00 | 0.00 | 0.00 | 100 | 1009.4 |
| 20260831044418 | 85 | 236 | 13.0 | 24.0 | 0.00 | 0.00 | 0.00 | 100 | 1009.4 |
| 20260831043918 | 86 | 225 | 13.0 | 24.0 | 0.00 | 0.00 | 0.00 | 100 | 1009.4 |
| 20260831043417 | 88 | 199 | 15.0 | 21.0 | 0.00 | 0.00 | 0.00 | 100 | 1009.4 |
| 20260831043145 | 90 | 284 | 4.0 | 6.0 | 0.00 | 0.00 | 0.00 | 100 | 1009.4 |
| 20260831042416 | 87 | 253 | 3.0 | 6.0 | 0.00 | 0.00 | 0.00 | 100 | 1009.4 |
| 20260831041916 | 89 | 237 | 3.0 | 6.0 | 0.00 | 0.00 | 0.00 | 100 | 1009.4 |
| 20260831041415 | 89 | 230 | 3.0 | 7.0 | 0.00 | 0.00 | 0.00 | 100 | 1009.4 |
| 20260831040915 | 87 | 220 | 3.0 | 9.0 | 0.00 | 0.00 | 0.00 | 100 | 1009.4 |
| 20260831040642 | 89 | 260 | 2.0 | 9.0 | 0.00 | 0.00 | 0.00 | 100 | 1009.4 |
| 20260831040125 | 89 | 237 | 4.0 | 9.0 | 0.00 | 0.00 | 0.00 | 100 | 1009.4 |
| 20260831035405 | 89 | 248 | 4.0 | 7.0 | 0.00 | 0.00 | 0.00 | 100 | 1009.4 |
| 20260831035122 | 89 | 272 | 5.0 | 7.0 | 0.00 | 0.00 | 0.00 | 100 | 1009.4 |
| 20260831034403 | 89 | 248 | 3.0 | 7.0 | 0.00 | 0.00 | 0.00 | 100 | 1009.4 |
| 20260831034123 | 89 | 239 | 3.0 | 7.0 | 0.00 | 0.00 | 0.00 | 100 | 1009.4 |
| 20260831033400 | 89 | 267 | 4.0 | 7.0 | 0.00 | 0.00 | 0.00 | 100 | 1009.4 |
| 20260831032859 | 88 | 248 | 3.0 | 9.0 | 0.00 | 0.00 | 0.00 | 100 | 1009.4 |
| 20260831032359 | 89 | 261 | 4.0 | 9.0 | 0.00 | 0.00 | 0.00 | 100 | 1009.4 |
| 20260831032127 | 89 | 257 | 5.0 | 9.0 | 0.00 | 0.00 | 0.00 | 100 | 1009.4 |
| 20260831031357 | 90 | 262 | 6.0 | 9.0 | 0.00 | 0.00 | 0.00 | 100 | 1009.4 |
| 20260831030857 | 90 | 260 | 8.0 | 9.0 | 0.00 | 0.00 | 0.00 | 100 | 1009.4 |
| 20260831030617 | 92 | 268 | 4.0 | 9.0 | 0.00 | 0.00 | 0.00 | 100 | 1009.4 |
| 20260831025355 | 82 | 262 | 5.0 | 7.0 | 0.00 | 0.00 | 0.00 | 100 | 1009.4 |
| 20260831024855 | 87 | 278 | 3.0 | 7.0 | 0.00 | 0.00 | 0.00 | 100 | 1009.4 |
| 20260831024354 | 88 | 247 | 3.0 | 6.0 | 0.00 | 0.00 | 0.00 | 100 | 1009.4 |
| 20260831023853 | 86 | 261 | 4.0 | 6.0 | 0.00 | 0.00 | 0.00 | 100 | 1009.4 |
| 20260831023610 | 92 | 312 | 3.0 | 6.0 | 0.00 | 0.00 | 0.00 | 100 | 1009.4 |
| 20260831022852 | 91 | 300 | 4.0 | 9.0 | 0.00 | 0.00 | 0.00 | 100 | 1009.4 |
| 20260831022351 | 90 | 272 | 5.0 | 9.0 | 0.00 | 0.00 | 0.00 | 100 | 1009.4 |
| 20260831021851 | 92 | 309 | 8.0 | 9.0 | 0.00 | 0.00 | 0.00 | 100 | 1009.4 |
| 20260831021350 | 92 | 282 | 6.0 | 9.0 | 0.00 | 0.00 | 0.00 | 100 | 1009.4 |
| 20260831020849 | 87 | 264 | 8.0 | 10.0 | 0.00 | 0.00 | 0.00 | 100 | 1009.4 |
| 20260831020348 | 87 | 271 | 5.0 | 10.0 | 0.00 | 0.00 | 0.00 | 100 | 1009.4 |
| 20260831015849 | 89 | 243 | 8.0 | 11.0 | 0.00 | 0.00 | 0.00 | 100 | 1009.4 |
| 20260831015348 | 90 | 286 | 7.0 | 12.0 | 0.00 | 0.00 | 0.00 | 100 | 1009.4 |
| 20260831014847 | 91 | 262 | 8.0 | 12.0 | 0.00 | 0.00 | 0.00 | 100 | 1009.4 |
| 20260831014347 | 91 | 261 | 9.0 | 12.0 | 0.00 | 0.00 | 0.00 | 100 | 1009.4 |
| 20260831013845 | 92 | 289 | 11.0 | 12.0 | 0.00 | 0.00 | 0.00 | 100 | 1009.4 |
| 20260831013609 | 94 | 258 | 4.0 | 12.0 | 0.00 | 0.00 | 0.00 | 100 | 1009.4 |
| 20260831012843 | 94 | 247 | 7.0 | 13.0 | 0.00 | 0.00 | 0.00 | 100 | 1009.4 |
| 20260831012342 | 94 | 237 | 6.0 | 15.0 | 0.00 | 0.00 | 0.00 | 100 | 1009.4 |
| 20260831011842 | 94 | 257 | 9.0 | 15.0 | 0.00 | 0.00 | 0.00 | 100 | 1009.4 |
| 20260831011341 | 95 | 251 | 8.0 | 13.0 | 0.00 | 0.00 | 0.00 | 100 | 1009.4 |
| 20260831010840 | 95 | 291 | 7.0 | 11.0 | 0.00 | 0.00 | 0.00 | 100 | 1009.4 |
| 20260831010340 | 95 | 292 | 7.0 | 16.0 | 0.00 | 0.00 | 0.00 | 100 | 1009.4 |
| 20260831005839 | 95 | 271 | 8.0 | 16.0 | 0.00 | 0.00 | 0.00 | 100 | 1009.4 |
| 20260831005339 | 94 | 243 | 10.0 | 15.0 | 0.00 | 0.00 | 0.00 | 100 | 1009.4 |
| 20260831004838 | 94 | 255 | 10.0 | 13.0 | 0.00 | 0.00 | 0.00 | 100 | 1009.4 |
| 20260831004337 | 94 | 253 | 2.0 | 9.0 | 0.00 | 0.00 | 0.00 | 100 | 1009.4 |
| 20260831003336 | 95 | 284 | 5.0 | 13.0 | 0.00 | 0.00 | 0.00 | 100 | 1009.4 |
| 20260831002835 | 95 | 282 | 7.0 | 15.0 | 0.00 | 0.00 | 0.00 | 100 | 1009.4 |
| 20260831002335 | 95 | 253 | 9.0 | 15.0 | 0.00 | 0.00 | 0.00 | 100 | 1009.4 |
| 20260831001834 | 95 | 264 | 10.0 | 15.0 | 0.00 | 0.00 | 0.00 | 100 | 1009.4 |
| 20260831001334 | 96 | 281 | 9.0 | 14.0 | 0.00 | 0.00 | 0.00 | 100 | 1009.4 |
| 20260831000832 | 96 | 268 | 6.0 | 12.0 | 0.00 | 0.00 | 0.00 | 100 | 1009.4 |
| 20260831000333 | 97 | 281 | 4.0 | 6.0 | 0.00 | 0.00 | 0.00 | 100 | 1009.4 |
| 20260830235832 | 95 | 174 | 4.0 | 8.0 | 0.00 | 0.00 | 0.00 | 100 | 1009.4 |
| 20260830235554 | 95 | 285 | 0.0 | 10.0 | 0.00 | 0.00 | 0.00 | 100 | 1009.4 |
| 20260830234822 | 97 | 307 | 1.0 | 15.0 | 0.00 | 0.00 | 0.00 | 100 | 1009.4 |
| 20260830234321 | 96 | 292 | 6.0 | 17.0 | 0.00 | 0.00 | 0.00 | 100 | 1009.4 |
| 20260830233822 | 96 | 247 | 12.0 | 17.0 | 0.00 | 0.00 | 0.00 | 100 | 1009.4 |
| 20260830233541 | 97 | 284 | 11.0 | 17.0 | 0.00 | 0.00 | 0.00 | 100 | 1009.4 |
| 20260830232820 | 97 | 358 | 3.0 | 9.0 | 0.00 | 0.00 | 0.00 | 100 | 1009.4 |
| 20260830232320 | 98 | 298 | 6.0 | 10.0 | 0.00 | 0.00 | 0.00 | 100 | 1009.4 |
| 20260830231819 | 98 | 251 | 5.0 | 18.0 | 0.00 | 0.00 | 0.00 | 100 | 1009.4 |
| 20260830231318 | 97 | 233 | 7.0 | 18.0 | 0.00 | 0.00 | 0.00 | 100 | 1009.4 |
| 20260830230817 | 97 | 253 | 16.0 | 18.0 | 0.00 | 0.00 | 0.00 | 100 | 1009.4 |
| 20260830230317 | 97 | 265 | 10.0 | 17.0 | 0.00 | 0.00 | 0.00 | 100 | 1009.4 |
| 20260830225816 | 99 | 225 | 5.0 | 11.0 | 0.00 | 0.00 | 0.00 | 100 | 1009.4 |
| 20260830225315 | 98 | 274 | 7.0 | 11.0 | 0.00 | 0.00 | 0.00 | 100 | 1009.4 |
| 20260830224815 | 98 | 264 | 6.0 | 11.0 | 0.00 | 0.00 | 0.00 | 100 | 1009.4 |
| 20260830224532 | 99 | 281 | 3.0 | 7.0 | 0.00 | 0.00 | 0.00 | 100 | 1009.4 |
| 20260830223814 | 98 | 35 | 1.0 | 10.0 | 0.00 | 0.00 | 0.00 | 100 | 1009.4 |
| 20260830223307 | 98 | 352 | 1.0 | 10.0 | 0.00 | 0.00 | 0.00 | 100 | 1009.4 |
| 20260830222807 | 99 | 267 | 5.0 | 11.0 | 0.00 | 0.00 | 0.00 | 100 | 1009.4 |
| 20260830222306 | 98 | 288 | 4.0 | 11.0 | 0.00 | 0.00 | 0.00 | 100 | 1009.4 |
| 20260830221806 | 99 | 251 | 2.0 | 11.0 | 0.00 | 0.00 | 0.00 | 100 | 1009.4 |
| 20260830221305 | 99 | 255 | 4.0 | 13.0 | 0.00 | 0.00 | 0.00 | 100 | 1009.4 |
| 20260830220804 | 99 | 233 | 9.0 | 13.0 | 0.00 | 0.00 | 0.00 | 100 | 1009.4 |
| 20260830220303 | 99 | 212 | 6.0 | 12.0 | 0.00 | 0.00 | 0.00 | 100 | 1009.4 |
| 20260830215803 | 97 | 97 | 0.0 | 10.0 | 0.00 | 0.00 | 0.00 | 100 | 1009.4 |
| 20260830215238 | 96 | 111 | 2.0 | 12.0 | 0.00 | 0.00 | 0.00 | 100 | 1009.4 |
| 20260830214737 | 94 | 146 | 4.0 | 12.0 | 0.00 | 0.00 | 0.00 | 100 | 1009.4 |
| 20260830214237 | 97 | 189 | 7.0 | 12.0 | 0.00 | 0.00 | 0.00 | 100 | 1009.4 |
| 20260830213736 | 96 | 180 | 1.0 | 11.0 | 0.00 | 0.00 | 0.00 | 100 | 1009.4 |
| 20260830213235 | 98 | 217 | 6.0 | 11.0 | 0.00 | 0.00 | 0.00 | 100 | 1009.4 |
| 20260830212736 | 99 | 223 | 9.0 | 11.0 | 0.00 | 0.00 | 0.00 | 100 | 1009.4 |
| 20260830212235 | 98 | 246 | 5.0 | 13.0 | 0.00 | 0.00 | 0.00 | 100 | 1009.4 |
| 20260830211733 | 98 | 219 | 4.0 | 13.0 | 0.00 | 0.00 | 0.00 | 100 | 1009.4 |
| 20260830211233 | 95 | 146 | 9.0 | 13.0 | 0.00 | 0.00 | 0.00 | 100 | 1009.4 |
| 20260830210732 | 95 | 115 | 6.0 | 10.0 | 0.00 | 0.00 | 0.00 | 100 | 1009.4 |
| 20260830210232 | 94 | 130 | 3.0 | 9.0 | 0.00 | 0.00 | 0.00 | 100 | 1009.4 |
| 20260830205952 | 95 | 286 | 5.0 | 11.0 | 0.00 | 0.00 | 0.00 | 100 | 1009.4 |
| 20260830205230 | 96 | 164 | 4.0 | 14.0 | 0.00 | 0.00 | 0.00 | 100 | 1009.4 |
| 20260830204730 | 94 | 149 | 5.0 | 14.0 | 0.00 | 0.00 | 0.00 | 100 | 1009.4 |
| 20260830204229 | 97 | 198 | 9.0 | 13.0 | 0.00 | 0.00 | 0.00 | 100 | 1009.4 |
| 20260830203728 | 96 | 229 | 4.0 | 10.0 | 0.00 | 0.00 | 0.00 | 100 | 1009.4 |
| 20260830203229 | 94 | 247 | 1.0 | 10.0 | 0.00 | 0.00 | 0.00 | 100 | 1009.4 |
| 20260830202726 | 94 | 236 | 2.0 | 11.0 | 0.00 | 0.00 | 0.00 | 100 | 1009.4 |
| 20260830202225 | 94 | 216 | 7.0 | 11.0 | 0.00 | 0.00 | 0.00 | 100 | 1009.4 |
| 20260830201950 | 94 | 230 | 7.0 | 11.0 | 0.00 | 0.00 | 0.00 | 100 | 1009.4 |
| 20260830201224 | 95 | 348 | 1.0 | 12.0 | 0.00 | 0.00 | 0.00 | 100 | 1009.4 |
| 20260830200723 | 91 | 322 | 2.0 | 12.0 | 0.00 | 0.00 | 0.00 | 100 | 1009.4 |
| 20260830200217 | 93 | 177 | 1.0 | 11.0 | 0.00 | 0.00 | 0.00 | 100 | 1009.4 |
| 20260830195716 | 89 | 292 | 7.0 | 11.0 | 0.00 | 0.00 | 0.00 | 100 | 1009.4 |
| 20260830195447 | 92 | 216 | 1.0 | 11.0 | 0.00 | 0.00 | 0.00 | 100 | 1009.4 |
| 20260830194714 | 93 | 258 | 6.0 | 14.0 | 0.00 | 0.00 | 0.00 | 100 | 1009.4 |
| 20260830194214 | 93 | 225 | 8.0 | 14.0 | 0.00 | 0.00 | 0.00 | 100 | 1009.4 |
| 20260830193713 | 82 | 1 | 4.0 | 10.0 | 0.00 | 0.00 | 0.00 | 100 | 1009.4 |
| 20260830193213 | 85 | 28 | 2.0 | 10.0 | 0.00 | 0.00 | 0.00 | 100 | 1009.4 |
| 20260830192711 | 84 | 60 | 4.0 | 12.0 | 0.00 | 0.00 | 0.00 | 100 | 1009.4 |
| 20260830192209 | 80 | 171 | 7.0 | 13.0 | 0.00 | 0.00 | 0.00 | 100 | 1009.4 |
| 20260830191701 | 81 | 105 | 8.0 | 13.0 | 0.00 | 0.00 | 0.00 | 100 | 1009.4 |
| 20260830191200 | 84 | 198 | 1.0 | 9.0 | 0.00 | 0.00 | 0.00 | 100 | 1009.4 |
| 20260830190659 | 82 | 21 | 2.0 | 12.0 | 0.00 | 0.00 | 0.00 | 100 | 1009.4 |
| 20260830190153 | 83 | 146 | 7.0 | 12.0 | 0.00 | 0.00 | 0.00 | 100 | 1009.4 |
| 20260830185652 | 85 | 313 | 2.0 | 9.0 | 0.00 | 0.00 | 0.00 | 100 | 1009.4 |
| 20260830185147 | 88 | 187 | 4.0 | 12.0 | 0.00 | 0.00 | 0.00 | 100 | 1009.4 |
| 20260830184910 | 88 | 334 | 6.0 | 12.0 | 0.00 | 0.00 | 0.00 | 100 | 1009.4 |
| 20260830184146 | 87 | 136 | 7.0 | 12.0 | 0.00 | 0.00 | 0.00 | 100 | 1009.4 |
| 20260830183646 | 87 | 189 | 8.0 | 12.0 | 0.00 | 0.00 | 0.00 | 100 | 1009.4 |
| 20260830183407 | 88 | 106 | 4.0 | 10.0 | 0.00 | 0.00 | 0.00 | 100 | 1009.4 |
| 20260830182144 | 86 | 210 | 7.0 | 12.0 | 0.00 | 0.00 | 0.00 | 100 | 1009.4 |
| 20260830181643 | 82 | 106 | 5.0 | 9.0 | 0.00 | 0.00 | 0.00 | 100 | 1009.4 |
| 20260830181143 | 89 | 87 | 1.0 | 12.0 | 0.00 | 0.00 | 0.00 | 100 | 1009.4 |
| 20260830180632 | 88 | 187 | 7.0 | 13.0 | 0.00 | 0.00 | 0.00 | 100 | 1009.4 |
| 20260830180131 | 88 | 206 | 5.0 | 13.0 | 0.00 | 0.00 | 0.00 | 100 | 1009.4 |
| 20260830175630 | 90 | 163 | 5.0 | 11.0 | 0.00 | 0.00 | 0.00 | 100 | 1009.4 |
| 20260830175130 | 93 | 317 | 6.0 | 12.0 | 0.00 | 0.00 | 0.00 | 100 | 1009.4 |
| 20260830174629 | 90 | 227 | 9.0 | 12.0 | 0.00 | 0.00 | 0.00 | 100 | 1009.4 |
| 20260830174129 | 92 | 192 | 6.0 | 13.0 | 0.00 | 0.00 | 0.00 | 100 | 1009.4 |
| 20260830173628 | 92 | 174 | 7.0 | 14.0 | 0.00 | 0.00 | 0.00 | 100 | 1009.4 |
| 20260830173128 | 89 | 174 | 6.0 | 14.0 | 0.00 | 0.00 | 0.00 | 100 | 1009.4 |
| 20260830172627 | 92 | 196 | 4.0 | 14.0 | 0.00 | 0.00 | 0.00 | 100 | 1009.4 |
| 20260830172127 | 83 | 143 | 5.0 | 14.0 | 0.00 | 0.00 | 0.00 | 100 | 1009.4 |
| 20260830171850 | 88 | 168 | 8.0 | 13.0 | 0.00 | 0.00 | 0.00 | 100 | 1009.4 |
| 20260830171125 | 89 | 157 | 8.0 | 13.0 | 0.00 | 0.00 | 0.00 | 100 | 1009.4 |
| 20260830170624 | 89 | 140 | 7.0 | 14.0 | 0.00 | 0.00 | 0.00 | 100 | 1009.4 |
| 20260830170124 | 90 | 178 | 9.0 | 14.0 | 0.00 | 0.00 | 0.00 | 100 | 1009.4 |
| 20260830165842 | 90 | 181 | 8.0 | 15.0 | 0.00 | 0.00 | 0.00 | 100 | 1009.4 |
| 20260830165123 | 91 | 137 | 9.0 | 15.0 | 0.00 | 0.00 | 0.00 | 100 | 1009.4 |
| 20260830164622 | 92 | 196 | 6.0 | 15.0 | 0.00 | 0.00 | 0.00 | 100 | 1009.4 |
| 20260830164341 | 86 | 175 | 9.0 | 15.0 | 0.00 | 0.00 | 0.00 | 100 | 1009.4 |
| 20260830163621 | 89 | 177 | 9.0 | 15.0 | 0.00 | 0.00 | 0.00 | 100 | 1009.4 |
| 20260830163121 | 89 | 154 | 10.0 | 16.0 | 0.00 | 0.00 | 0.00 | 100 | 1009.4 |
| 20260830162620 | 89 | 154 | 8.0 | 16.0 | 0.00 | 0.00 | 0.00 | 100 | 1009.4 |
| 20260830162119 | 89 | 178 | 7.0 | 17.0 | 0.00 | 0.00 | 0.00 | 100 | 1009.4 |
| 20260830161619 | 91 | 165 | 9.0 | 17.0 | 0.00 | 0.00 | 0.00 | 100 | 1009.4 |
| 20260830161118 | 84 | 175 | 7.0 | 17.0 | 0.00 | 0.00 | 0.00 | 100 | 1009.4 |
| 20260830160617 | 86 | 168 | 9.0 | 21.0 | 0.00 | 0.00 | 0.00 | 100 | 1009.4 |
| 20260830160117 | 85 | 164 | 11.0 | 21.0 | 0.00 | 0.00 | 0.00 | 100 | 1009.4 |
| 20260830155616 | 86 | 150 | 10.0 | 18.0 | 0.00 | 0.00 | 0.00 | 100 | 1009.4 |
| 20260830155115 | 88 | 153 | 11.0 | 19.0 | 0.00 | 0.00 | 0.00 | 100 | 1009.4 |
| 20260830154615 | 87 | 158 | 11.0 | 19.0 | 0.00 | 0.00 | 0.00 | 100 | 1009.4 |
| 20260830154114 | 87 | 132 | 10.0 | 21.0 | 0.00 | 0.00 | 0.00 | 100 | 1009.4 |
| 20260830153615 | 87 | 161 | 10.0 | 22.0 | 0.00 | 0.00 | 0.00 | 100 | 1009.4 |
| 20260830153113 | 83 | 219 | 9.0 | 22.0 | 0.00 | 0.00 | 0.00 | 100 | 1009.4 |
| 20260830152612 | 85 | 175 | 12.0 | 22.0 | 0.00 | 0.00 | 0.00 | 100 | 1009.4 |
| 20260830152112 | 88 | 178 | 12.0 | 20.0 | 0.00 | 0.00 | 0.00 | 100 | 1009.4 |
| 20260830151834 | 82 | 132 | 10.0 | 20.0 | 0.00 | 0.00 | 0.00 | 100 | 1009.4 |